Theta_e
340 341 343 345 345 345 345 345 344 342 342 341 339 337 336 335 332 328 324 321 318 318 317 317 317 313 301
337 334 337 340 341 341 340 338 336 337 337 337 335 337 336 335 332 328 325 321 318 317 316 315 313 310 300
338 335 333 334 335 335 334 331 330 332 333 333 332 335 335 334 331 329 326 322 317 318 316 312 307 298 299
328 336 339 338 336 336 335 333 333 332 333 331 326 330 332 331 331 330 326 322 316 308 305 307 299 298 299
318 333 335 334 333 334 337 334 335 333 329 326 323 323 326 322 321 320 317 317 312 310 308 304 302 300 298
312 332 330 329 328 328 330 334 332 330 328 324 328 327 327 326 319 316 315 313 312 312 309 307 306 303 301
326 326 324 322 322 322 324 325 328 328 325 323 321 321 321 321 319 313 312 311 309 310 310 308 307 306 304
319 319 318 318 318 318 318 319 321 321 320 318 316 315 315 316 314 312 311 309 306 306 307 307 306 305 304
312 314 314 314 315 315 315 315 314 315 314 312 312 312 312 312 309 308 304 303 299 300 301 305 304 303 301
310 310 310 309 310 310 311 312 310 309 308 305 303 301 302 303 302 299 297 295 295 297 298 301 300 299 298
304 303 302 302 302 303 304 304 303 301 301 300 298 296 297 298 298 294 291 292 291 295 299 298 297 296 296
300 299 298 297 296 297 297 297 296 296 295 293 291 291 293 293 292 290 288 287 287 292 296 294 294 292 292
299 297 296 293 292 292 293 293 291 291 291 290 289 289 288 288 287 288 287 285 285 286 294 293 291 289 286
300 295 293 291 290 290 290 289 289 289 288 288 287 286 286 286 285 285 286 284 284 283 289 289 287 290 286
294 291 289 289 289 288 287 286 286 287 287 287 286 286 285 285 283 283 283 283 281 282 282 284 278 277 279
293 291 290 287 285 284 284 284 284 285 285 285 285 285 284 284 283 283 283 282 282 280 281 282 280 279 276
Wind_Speed
7 9 9 9 9 10 10 12 14 13 12 12 12 13 16 17 15 13 14 14 14 14 14 15 15 14 7
4 6 9 9 9 9 10 11 11 12 11 12 10 10 13 16 16 12 12 12 12 12 12 12 12 12 6
4 4 7 9 9 8 8 10 9 4 5 7 6 9 8 9 13 13 11 9 9 9 11 12 10 4 5
2 4 5 6 4 4 5 6 4 4 4 5 7 9 9 8 8 10 10 11 7 4 4 8 4 5 4
2 1 2 2 3 2 4 5 6 4 4 3 3 3 3 6 3 5 5 4 6 5 5 5 5 5 4
2 3 4 4 3 3 4 5 6 5 4 3 3 3 3 2 4 4 3 5 6 6 6 6 6 5 4
4 5 5 5 4 4 5 6 5 5 5 5 5 4 4 4 4 4 4 5 6 6 6 6 6 6 7
5 7 6 5 5 5 5 5 7 6 6 5 5 4 4 4 4 4 4 5 4 5 6 6 6 5 8
6 7 6 5 6 6 6 8 8 7 7 6 5 5 4 4 6 5 5 5 5 4 7 6 5 7 10
8 6 5 6 5 6 7 7 9 8 7 7 6 4 4 4 4 4 4 5 4 5 4 4 6 8 10
9 7 7 8 6 6 5 7 8 7 7 7 5 4 5 5 5 4 5 4 4 4 6 6 6 7 7
8 8 7 7 6 5 5 7 6 6 8 8 6 6 4 6 5 4 5 6 4 3 8 8 5 5 6
8 7 4 4 4 5 5 7 6 6 7 8 6 6 5 6 5 4 3 6 8 4 4 5 4 5 8
6 6 5 4 4 4 4 6 5 7 6 8 7 6 6 7 6 5 4 3 4 5 3 2 1 1 4
9 9 8 8 5 3 4 4 4 6 7 8 7 7 7 5 6 5 5 6 4 4 7 4 3 1 2
11 11 14 7 8 2 2 3 4 6 7 6 7 7 6 5 7 5 5 4 4 3 3 6 7 3 3
Wind_Direction
138 149 159 155 154 150 147 145 146 141 135 130 128 120 111 104 93 86 76 68 68 68 66 72 76 74 67
147 165 171 171 167 163 150 143 145 147 153 142 152 143 125 119 113 100 84 73 66 68 69 72 75 72 63
157 182 182 172 172 157 144 148 145 147 147 148 123 117 110 103 111 111 109 99 79 58 60 62 65 56 58
334 201 201 163 163 157 145 151 134 142 117 94 104 114 111 93 87 96 105 105 83 64 47 59 61 58 54
266 184 58 87 109 93 177 164 149 111 102 108 106 105 113 94 72 74 56 38 52 54 41 31 39 45 47
296 88 84 83 52 57 59 97 130 127 126 98 95 84 83 108 90 60 58 50 44 51 53 51 40 43 34
129 87 81 72 67 57 56 47 66 94 94 88 67 58 46 54 65 61 58 50 41 38 41 44 38 38 52
104 101 104 94 81 72 70 61 65 84 88 82 79 70 57 59 64 68 62 67 50 51 48 48 55 50 62
107 106 103 107 102 97 89 75 71 77 88 94 91 83 69 73 76 72 59 63 52 43 52 48 51 53 68
106 102 102 98 104 104 103 98 89 83 90 90 90 82 74 70 75 68 47 60 57 67 76 58 60 71 71
91 85 77 73 67 62 76 91 89 89 91 96 90 76 78 76 66 69 50 71 48 45 74 65 65 69 68
105 98 85 77 68 71 81 83 80 92 94 97 85 80 74 84 70 63 77 57 72 67 82 72 61 63 73
132 122 108 102 91 76 71 84 90 92 94 100 95 89 80 84 75 53 79 55 36 6 107 72 59 66 67
140 115 117 121 82 82 88 73 75 93 93 94 101 94 88 92 71 61 66 92 58 6 113 107 71 327 38
124 113 103 101 95 87 67 68 48 81 82 90 91 92 87 88 86 69 68 85 113 23 42 124 91 203 346
144 142 148 144 137 145 115 93 75 65 80 87 93 94 89 86 85 79 59 77 100 123 49 39 60 117 113